This is the latest recevied weather packets stored in our database for station/object IT9CNT. If no packets are shown the sender has not sent any weather packets the latest 10 day(s).
| Time | Temp. | Humidity | Pressure | Rain* | Wind** | Luminosity | Snow |
|---|---|---|---|---|---|---|---|
| 1787428563 | 26.67° C | 98% | 1013.3 hPa | 13.21 mm | - | - | - |
| 1787428503 | 26.67° C | 98% | 1013.4 hPa | 13.46 mm | - | - | - |
| 1787428443 | 26.67° C | 98% | 1013.4 hPa | 14.22 mm | - | - | - |
| 1787428383 | 26.67° C | 98% | 1013.2 hPa | 14.22 mm | - | - | - |
| 1787428323 | 26.67° C | 98% | 1013.4 hPa | 14.73 mm | - | - | - |
| 1787428263 | 26.67° C | 98% | 1013.5 hPa | 14.73 mm | - | - | - |
| 1787428203 | 26.67° C | 97% | 1013.4 hPa | 15.49 mm | - | - | - |
| 1787428143 | 26.67° C | 97% | 1013.3 hPa | 15.49 mm | - | - | - |
| 1787428083 | 26.67° C | 97% | 1013.4 hPa | 16 mm | - | - | - |
| 1787428023 | 27.22° C | 98% | 1013.4 hPa | 16.26 mm | - | - | - |
| 1787427963 | 27.22° C | 98% | 1013.5 hPa | 16.51 mm | - | - | - |
| 1787427903 | 26.67° C | 97% | 1013.4 hPa | 16.51 mm | - | - | - |
| 1787427843 | 26.67° C | 97% | 1013.3 hPa | 17.02 mm | - | - | - |
| 1787427783 | 26.67° C | 98% | 1013.4 hPa | 18.29 mm | - | - | - |
| 1787427723 | 27.22° C | 98% | 1013.3 hPa | 18.29 mm | - | - | - |
| 1787427663 | 27.22° C | 98% | 1013.2 hPa | 18.29 mm | - | - | - |
| 1787427603 | 27.22° C | 98% | 1013.2 hPa | 18.29 mm | - | - | - |
| 1787427543 | 27.22° C | 98% | 1013.3 hPa | 19.56 mm | - | - | - |
| 1787427483 | 27.22° C | 98% | 1013.3 hPa | 19.56 mm | - | - | - |
| 1787427423 | 27.22° C | 97% | 1013.3 hPa | 19.3 mm | - | - | - |
| 1787427363 | 27.22° C | 97% | 1013.3 hPa | 18.8 mm | - | - | - |
| 1787427303 | 27.22° C | 97% | 1013.3 hPa | 18.8 mm | - | - | - |
| 1787427243 | 27.22° C | 97% | 1013.2 hPa | 18.8 mm | - | - | - |
| 1787427183 | 27.22° C | 97% | 1013.3 hPa | 19.3 mm | - | - | - |
| 1787427123 | 27.22° C | 97% | 1013.4 hPa | 18.8 mm | - | - | - |
* Rain latest hour (hover to see other rain measurements)
** Current wind speed in m/s (hover to see current wind gust speed)